Other Public Products
Issued by NWS Grand Forks, ND

Home | Current Version | Previous Version | Graphics & Text | Print | Product List | Glossary On
Versions: 1 2 3 4 5 6 7 8 9 10 11 12 13 14 15 16 17 18 19 20 21 22 23 24 25 26 27 28 29 30 31 32 33 34 35 36 37 38 39 40 41 42 43 44 45 46 47 48 49 50
000
FPUS83 KFGF 220131
OPUFGF
PRAIRIE TO PINES WEATHER ROUNDUP
NATIONAL WEATHER SERVICE EASTERN NORTH DAKOTA/GRAND FORKS ND
700 PM CST SUN DEC 21 2014

 **SATELLITE DATA USED TO AUGMENT SKY COVER AT AUTOMATED STATIONS**
 *****  WEATHER ACROSS EASTERN NORTH DAKOTA  *****

CITY           SKY/WX    TMP DP  RH WIND       PRES   REMARKS
GRAND FORKS    CLOUDY    32  30  92 SE12      29.58F WCI  23
GRAND FORKS AF CLOUDY    32  32 100 S10       29.58S WCI  24
GRAND CITY NWS   N/A     32 N/A N/A SE9         N/A  WCI  24
BUXTON           N/A     32  32  98 SE13        N/A  WCI  23
DEVILS LAKE    CLOUDY    30  23  74 SE10      29.49S WCI  21
FARGO          CLOUDY    35  31  85 SE15      29.57F FOG
WAHPETON ARPT  CLOUDY    32  32 100 SE16      29.58S WCI  21
$$

 *****  WEATHER ACROSS CENTRAL AND WESTERN NORTH DAKOTA  *****

CITY           SKY/WX    TMP DP  RH WIND       PRES   REMARKS
JAMESTOWN      FOG       31  29  92 SE12      29.49S VSB 3/4 WCI  22
BISMARCK       CLOUDY    30  29  96 SE12      29.45R WCI  20
MINOT          CLOUDY    30  28  92 E10       29.42R WCI  21
MINOT AFB      CLOUDY    32  32 100 SE8       29.42R WCI  25
GARRISON         N/A     34  29  82 S7        29.40S
WILLISTON      CLOUDY    34  27  75 CALM      29.37R
DICKINSON      LGT RAIN  39  36  89 SW7       29.35R
HETTINGER      MIX PCPN  37  35  92 SW5       29.39S
$$

 *****  OTHER OBSERVATIONS NORTHEAST NORTH DAKOTA  *****

CITY           SKY/WX    TMP DP  RH WIND       PRES   REMARKS
WALHALLA         N/A     30  30 100 SE16      29.57S FOG     WCI  19
LANGDON        FOG       28  28 100 N5        29.52R VSB 1/2 WCI  23
CAVALIER       CLOUDY    32  32 100 S9        29.58S FOG     WCI  24
GRAFTON        NOT AVBL
CANDO          CLOUDY    28  28 100 SE14G22   29.50S FOG     WCI  17
FORT TOTTEN    NOT AVBL
ROLLA          FOG       28  28 100 S15G23    29.48S VSB 1/4 WCI  17
RUGBY          CLOUDY    28  28 100 SE12      29.47S FOG     WCI  18
 ***** THE ABOVE OBSERVATIONS ARE NON NWS ARE NOT QUALITY
        CONTROLLED AND MAY MIS-REPORT RAIN FOR SNOW...
$$

 *****  OTHER OBSERVATIONS SOUTHEAST NORTH DAKOTA *****

CITY           SKY/WX    TMP DP  RH WIND       PRES   REMARKS
COOPERSTOWN    NOT AVBL
VALLEY CITY    CLOUDY    30  30 100 SE17      29.52F FOG     WCI  18
OAKES            N/A     32  32 100 SE14      29.51S WCI  22
GWINNER        CLOUDY    34  34 100 SE13      29.54S WCI  25
SHEYENNE NWR     N/A     33  32  94 SE8       29.95S
BUFFALO        NOT AVBL
WYNDMERE         N/A     34  34 100 SE10        N/A
 ***** THE ABOVE OBSERVATIONS ARE NON NWS ARE NOT QUALITY
       CONTROLLED AND MAY MIS-REPORT RAIN FOR SNOW...
$$

  *****  WEATHER ACROSS NORTHERN MINNESOTA  *****

CITY           SKY/WX    TMP DP  RH WIND       PRES   REMARKS
FLAG ISLAND    CLOUDY    30  28  93 SE12      29.64F WCI  21
WARROAD        CLOUDY    30  28  93 S7        29.64F WCI  23
ROSEAU         CLOUDY    32  27  80 SE6       29.64S
HALLOCK        CLOUDY    32  30  93 CALM      29.60F FOG
THF RVR FALLS  CLOUDY    32  30  93 SE10      29.60F WCI  24
HALSTAD          N/A     33  30  88 SE8         N/A
FOSSTON        CLOUDY    30  28  93 SE9       29.59F WCI  22
BAUDETTE       CLOUDY    32  30  92 S7        29.65F
WASKISH        CLOUDY    34  30  86 CALM      29.65F
CROOKSTON      CLOUDY    34  30  86 SE9       29.60F
$$
  *****  WEATHER ACROSS CENTRAL AND WEST MINNESOTA  *****

CITY           SKY/WX    TMP DP  RH WIND       PRES   REMARKS
BEMIDJI        CLOUDY    32  31  96 SE9       29.63S WCI  24
PARK RAPIDS    CLOUDY    33  32  96 SE13      29.63R FOG     WCI  24
WADENA         CLOUDY    32  32 100 SE10      29.62S FOG     WCI  24
DETROIT LAKES  CLOUDY    34  32  93 SE18      29.59F FOG     WCI  23
MOORHEAD       CLOUDY    36  36 100 SE9       29.58F
FERGUS FALLS   CLOUDY    34  34 100 SE14      29.61F FOG     WCI  24
ELBOW LAKE     CLOUDY    33  33 100 SE15      29.59S FOG     WCI  23
MORRIS MN      FOG       36  34  93 SE13      29.59S VSB 1/4
STAPLES        CLOUDY    34  34 100 SE7       29.64S FOG
WHEATON        CLOUDY    32  30  93 SE13      29.60S FOG     WCI  22
$$
  *****  WEATHER ELSEWHERE ACROSS MINNESOTA  *****

CITY           SKY/WX    TMP DP  RH WIND       PRES   REMARKS
DULUTH         FRZ DRZL  33  31  92 SE10      29.72F VSB 1   WCI  25
INTRNTL FALLS  CLOUDY    32  30  92 SE8       29.69F FOG     WCI  25
ELY            CLOUDY    30  30 100 S6        29.73S FOG     WCI  24
CLOQUET        CLOUDY    34  32  93 SE5       29.72S FOG
BRAINERD       CLOUDY    33  33 100 SE8       29.67F FOG
HIBBING        CLOUDY    33  30  88 SE8       29.71S FOG
ALEXANDRIA     FOG       33  33 100 SE12      29.62S VSB 1/2 WCI  24
SAINT CLOUD    CLOUDY    37  34  89 SE12      29.68S FOG
MINNEAPOLIS    CLOUDY    36  35  96 SE9       29.74S FOG
$$

  *****  WEATHER ACROSS SOUTH DAKOTA  *****

CITY           SKY/WX    TMP DP  RH WIND       PRES   REMARKS
SIOUX FALLS    CLOUDY    38  37  97 S16G26    29.58S FOG
BROOKINGS      NOT AVBL
WATERTOWN      CLOUDY    35  33  92 S17G23    29.51S FOG     WCI  25
HURON          CLOUDY    35  32  88 S15       29.47F
SISSETON         N/A     34  33  96 S10       29.54S
ABERDEEN       CLOUDY    33  30  88 E8        29.49F
MITCHELL       PTCLDY    36  33  89 S16       29.49F
PIERRE         CLOUDY    29  26  89 NE5       29.40S WCI  24
MOBRIDGE       CLOUDY    30  29  96 E12       29.41S FOG     WCI  20
RAPID CITY     LGT RAIN  40  32  73 NW13      29.45R
$$

  *****  SOME WEATHER IN NEARBY STATES *****

CITY           SKY/WX    TMP DP  RH WIND       PRES   REMARKS
GLASGOW MT     CLOUDY    34  30  85 W7        29.37R
GREAT FALLS MT CLOUDY    38  22  52 W17       29.61R
CHEYENNE WY    LGT RAIN  38  32  79 NW13      29.55S
SCOTTSBLUFF NE CLOUDY    39  31  72 W6        29.50R
OMAHA NE       DRIZZLE   42  40  92 S15       29.72S FOG
DES MOINES IA  DRIZZLE   43  38  82 S14       29.80F
DAVENPORT IA   CLOUDY    36  30  79 S17       29.96S
CHICAGO IL     CLOUDY    35  29  78 S10       30.08S
EAU CLAIRE WI  CLOUDY    37  34  89 S12       29.80S
LA CROSSE WI   LGT RAIN  39  36  89 S18G28    29.83F
$$

  *****  SOME NATIONAL WEATHER *****

CITY           SKY/WX    TMP DP  RH WIND       PRES   REMARKS
LA GUARDIA NY  CLOUDY    35  29  78 N7        30.33F
RALEIGH NC     CLOUDY    45  33  63 E8        30.25S
ATLANTA GA     CLOUDY    49  44  83 E12       30.09F
NEW ORLEANS LA CLOUDY    55  51  86 E7        29.98F FOG
OKLAHOMA CITY  CLOUDY    46  43  87 S16G24    29.71F
ALBUQUERQUE NM MOCLDY    46  29  51 N8        29.92F
SALT LAKE CITY CLOUDY    43  40  89 SE8       29.93R
LOS ANGELES CA CLOUDY    61  56  83 W9        30.04F HAZE
BOISE ID       LGT RAIN  42  39  89 NW8       30.07R
SEATTLE WA     CLOUDY    51  45  79 S6        30.03R
$$

*** WEATHER ACROSS MANITOBA...SASKATCHEWAN AND ONTARIO ***
                ***ONTARIO***

CITY           SKY/WX    TMP DP  RH WIND       PRES   REMARKS
GERALDTON      FLURRIES  32  30  93 S8        29.88F WCI  25
THUNDER BAY    FLURRIES  34  32  93 S9        29.85S
SIOUX LOOKOUT  FRZ DRZL  30  28  93 S6        29.71  FOG     WCI  24
TORONTO        MOCLDY    32  21  64 S6        30.30R
BIG TROUT LK   FLURRIES  27  27 100 SE8       29.76F WCI  18
PICKLE LAKE    LGT SNOW  28  27  93 SE8       29.75S WCI  20
DRYDEN         CLOUDY    30  28  93 S8        29.69S FOG     WCI  23
KENORA         FRZ DRZL  28  28 100 S12       29.66R FOG     WCI  18
$$
                *** MANITOBA***

CITY           SKY/WX    TMP DP  RH WIND       PRES   REMARKS
BRANDON        CLOUDY    27  25  93 E14       29.51  FOG     WCI  15
DAUPHIN        CLOUDY    28  28 100 E6        29.54R FOG     WCI  22
ISLAND LAKE    FLURRIES  28  28 100 SE7       29.67F WCI  21
PILOT MOUND      N/A     28  28 100 CALM        N/A
THE PAS        CLOUDY    23  23 100 E3        29.60
THOMPSON       FRZ DRZL  21  19  93 NE7       29.68S WCI  13
WINNIPEG       CLOUDY    30  28  93 S15       29.62  FOG     WCI  19
LYNN LAKE      CLOUDY    14  12  92 NE5       29.66S WCI   6
CHURCHILL      FLURRIES  14  12  92 SW3       29.78S
GILLAM         FRZ DRZL  21  19  93 NE3       29.73
$$
                ***SASKATCHEWAN***

CITY           SKY/WX    TMP DP  RH WIND       PRES   REMARKS
ESTEVAN        CLOUDY    27  27 100 E12       29.37S WCI  16
KINDERSLEY     LGT SNOW  21  19  93 NW10      29.46  WCI  10
LLOYDMINSTER   LGT SNOW  19  18  93 NW6       29.49  FOG     WCI  11
PRINCE ALBERT  CLOUDY    23  23 100 E10       29.52R FOG     WCI  12
REGINA         CLOUDY    23  23 100 E14       29.38  WCI  11



USA.gov is the U.S. government's official web portal to all federal, state and local government web resources and services.